Weather History for KGGW - January, 2014

Change the Weather History Date:

Thursday, January 30, 2014

  Actual Average Record
Temperature  
Mean Temperature 1 °F 15 °F  
Max Temperature 10 °F 25 °F 49 °F (2012)
Min Temperature -9 °F 6 °F -43 °F (1950)
Degree Days  
Heating Degree Days 64 50  
Month to date heating degree days 1380 1540  
Since 1 July heating degree days 5070 5042  
Cooling Degree Days 0 0  
Month to date cooling degree days 0 0  
Year to date cooling degree days 0 0  
Moisture  
Dew Point -3 °F    
Average Humidity 73    
Maximum Humidity 88    
Minimum Humidity 57    
Precipitation  
Precipitation T in 0.01 in 0.33 in (1929)
Month to date precipitation 0.13 0.36  
Year to date precipitation 0.13 0.36  
Snow  
Snow 0.10 in 0.20 in 6.10 in (2011)
Month to date snowfall 1.1 7.8  
Since 1 July snowfall 19.9 22.4  
Snow Depth 1.00 in    
Sea Level Pressure  
Sea Level Pressure 30.06 in    
Wind  
Wind Speed 12 mph (NW)    
Max Wind Speed 23 mph    
Max Gust Speed 29 mph    
Visibility 9 miles    
Events Snow    
T = Trace of Precipitation, MM = Missing Value Source: NWS Daily Summary

Daily Weather History Graph

Daily Weather History Graph

Search for Another Location

Airport or City:

Trip Planner

Search our weather history database for the weather conditions in past years. The results will help you decide how hot, cold, wet, or windy it might be!

Date:

Astronomy

Jan. 30, 2014 Rise Set
Actual Time 7:37 AM MST 5:03 PM MST
Civil Twilight 7:03 AM MST 5:36 PM MST
Nautical Twilight 6:26 AM MST 6:14 PM MST
Astronomical Twilight 5:49 AM MST 6:50 PM MST
Moon 7:01 AM MST (1/30) 5:23 PM MST (1/30)
Length of Visible Light 10h 33m
Length of Day
9h 25m
Waning Crescent, 0% of the Moon is Illuminated
Jan 30
Waning Crescent
Jan 30
New
Feb 6
First Quarter
Feb 14
Full
Feb 22
Last Quarter

Hourly Weather History & Observations

Time (MST) Temp. Windchill Dew Point Humidity Pressure Visibility Wind Dir Wind Speed Gust Speed Precip Events Conditions
12:53 AM 9.0 °F -3.2 °F 3.0 °F 77% 29.86 in 10.0 mi NNW 8.1 mph - N/A   Scattered Clouds
1:53 AM 7.0 °F -5.7 °F 1.9 °F 80% 29.90 in 10.0 mi NNW 8.1 mph - N/A   Overcast
2:53 AM 7.0 °F -5.7 °F 3.0 °F 84% 29.95 in 10.0 mi NW 8.1 mph - N/A   Overcast
3:53 AM 8.1 °F -6.2 °F 3.9 °F 83% 29.96 in 3.0 mi NW 10.4 mph - 0.00 in Snow Light Snow
4:14 AM 8.1 °F -4.3 °F 3.9 °F 83% 29.84 in 2.0 mi NW 8.1 mph - 0.00 in Snow Light Snow
4:30 AM 8.1 °F -5.3 °F 3.9 °F 83% 29.85 in 4.0 mi NW 9.2 mph - 0.00 in Snow Light Snow
4:53 AM 8.1 °F -4.3 °F 3.9 °F 83% 30.00 in 4.0 mi NW 8.1 mph - 0.00 in Snow Light Snow
5:53 AM 7.0 °F -8.3 °F 3.0 °F 84% 30.01 in 10.0 mi NW 11.5 mph - 0.00 in   Mostly Cloudy
6:53 AM 6.1 °F -10.2 °F 1.9 °F 83% 30.03 in 10.0 mi NNW 12.7 mph - N/A   Mostly Cloudy
7:53 AM 5.0 °F -13.0 °F -0.0 °F 80% 30.06 in 10.0 mi NW 15.0 mph - N/A   Scattered Clouds
8:49 AM 3.2 °F -14.6 °F -2.2 °F 78% 29.95 in 10.0 mi NW 13.8 mph - N/A   Mostly Cloudy
8:53 AM 3.9 °F -13.7 °F -2.9 °F 73% 30.10 in 10.0 mi NNW 13.8 mph - N/A   Mostly Cloudy
9:53 AM 5.0 °F -13.0 °F -2.0 °F 73% 30.14 in 10.0 mi NW 15.0 mph - N/A   Overcast
10:53 AM 6.1 °F -11.6 °F -2.0 °F 69% 30.15 in 10.0 mi WNW 15.0 mph - N/A   Overcast
11:53 AM 7.0 °F -12.6 °F -2.9 °F 64% 30.15 in 10.0 mi NW 19.6 mph 27.6 mph N/A   Overcast
12:53 PM 8.1 °F -10.2 °F -2.9 °F 61% 30.13 in 10.0 mi NW 17.3 mph - N/A   Mostly Cloudy
1:53 PM 8.1 °F -8.4 °F -2.0 °F 64% 30.12 in 10.0 mi WNW 13.8 mph - N/A   Overcast
2:41 PM 8.1 °F -11.7 °F -2.0 °F 64% 29.96 in 10.0 mi NW 20.7 mph - N/A   Scattered Clouds
2:53 PM 8.1 °F -12.6 °F -4.0 °F 58% 30.12 in 10.0 mi WNW 23.0 mph 28.8 mph N/A   Clear
3:53 PM 3.9 °F -16.6 °F -6.0 °F 64% 30.13 in 10.0 mi NW 19.6 mph - N/A   Clear
4:53 PM 1.9 °F -15.5 °F -6.0 °F 69% 30.14 in 10.0 mi WNW 12.7 mph - N/A   Clear
5:53 PM -0.9 °F -14.1 °F -7.1 °F 75% 30.15 in 10.0 mi WNW 6.9 mph - N/A   Clear
6:53 PM -0.9 °F -16.4 °F -7.1 °F 75% 30.15 in 10.0 mi West 9.2 mph - N/A   Clear
7:53 PM -2.9 °F -19.8 °F -8.0 °F 79% 30.16 in 10.0 mi WNW 10.4 mph - N/A   Clear
8:53 PM -4.0 °F -17.8 °F -9.0 °F 79% 30.14 in 10.0 mi West 6.9 mph - N/A   Clear
9:53 PM -7.1 °F -22.8 °F -11.0 °F 83% 30.14 in 10.0 mi West 8.1 mph - N/A   Clear
10:53 PM -9.0 °F -23.8 °F -13.0 °F 83% 30.13 in 10.0 mi WSW 6.9 mph - N/A   Clear
11:53 PM -8.0 °F -22.5 °F -11.9 °F 83% 30.11 in 10.0 mi WSW 6.9 mph - N/A   Clear